| time (UTC) | temp F | wind direction | speed MPH | gust MPH | rain 1hr in | rain 24hr in | rain mn in | humidity % | barometer mb |
| 20260906212131 | 79 | 91 | 5.0 | 7.0 | 0.00 | 0.26 | 0.26 | 77 | 1013.4 |
| 20260906211630 | 78 | 104 | 2.0 | 2.0 | 0.00 | 0.26 | 0.26 | 77 | 1013.5 |
| 20260906211126 | 78 | 110 | 5.0 | 6.0 | 0.00 | 0.26 | 0.26 | 76 | 1014.0 |
| 20260906210622 | 78 | 120 | 6.0 | 7.0 | 0.00 | 0.26 | 0.26 | 75 | 1014.3 |
| 20260906210116 | 78 | 100 | 3.0 | 3.0 | 0.00 | 0.26 | 0.26 | 78 | 1014.3 |
| 20260906205612 | 78 | 119 | 4.0 | 5.0 | 0.00 | 0.26 | 0.26 | 78 | 1014.4 |
| 20260906205108 | 78 | 121 | 5.0 | 6.0 | 0.00 | 0.26 | 0.26 | 79 | 1014.6 |
| 20260906204601 | 78 | 92 | 3.0 | 3.0 | 0.00 | 0.26 | 0.26 | 78 | 1014.5 |
| 20260906204056 | 78 | 61 | 4.0 | 5.0 | 0.00 | 0.26 | 0.26 | 78 | 1015.0 |
| 20260906203556 | 78 | 59 | 3.0 | 3.0 | 0.00 | 0.26 | 0.26 | 80 | 1014.8 |
| 20260906203051 | 78 | 120 | 3.0 | 5.0 | 0.00 | 0.26 | 0.26 | 81 | 1015.0 |
| 20260906202548 | 76 | 94 | 4.0 | 5.0 | 0.00 | 0.26 | 0.26 | 81 | 1015.1 |
| 20260906202048 | 77 | 92 | 5.0 | 6.0 | 0.00 | 0.26 | 0.26 | 82 | 1015.4 |
| 20260906201548 | 76 | 123 | 7.0 | 7.0 | 0.00 | 0.26 | 0.26 | 81 | 1015.3 |
| 20260906201048 | 76 | 137 | 6.0 | 8.0 | 0.00 | 0.26 | 0.26 | 83 | 1015.4 |
| 20260906200544 | 76 | 167 | 7.0 | 8.0 | 0.00 | 0.26 | 0.26 | 82 | 1015.4 |
| 20260906200040 | 75 | 162 | 8.0 | 9.0 | 0.00 | 0.26 | 0.26 | 82 | 1015.6 |
| 20260906195540 | 74 | 123 | 6.0 | 7.0 | 0.00 | 0.26 | 0.26 | 85 | 1015.6 |
| 20260906195037 | 74 | 156 | 7.0 | 8.0 | 0.00 | 0.26 | 0.26 | 85 | 1015.6 |
| 20260906194532 | 73 | 151 | 7.0 | 9.0 | 0.00 | 0.26 | 0.26 | 87 | 1016.1 |
| 20260906194028 | 72 | 140 | 7.0 | 8.0 | 0.00 | 0.26 | 0.26 | 87 | 1015.9 |
| 20260906193528 | 72 | 131 | 8.0 | 9.0 | 0.00 | 0.26 | 0.26 | 86 | 1016.2 |
| 20260906193023 | 71 | 150 | 5.0 | 6.0 | 0.00 | 0.26 | 0.26 | 88 | 1016.2 |
| 20260906192519 | 70 | 164 | 9.0 | 9.0 | 0.00 | 0.26 | 0.26 | 88 | 1016.7 |
| 20260906192017 | 70 | 166 | 13.0 | 15.0 | 0.00 | 0.26 | 0.26 | 90 | 1017.0 |
| 20260906191513 | 73 | 126 | 14.0 | 16.0 | 0.00 | 0.26 | 0.26 | 93 | 1016.8 |
| 20260906191012 | 73 | 166 | 4.0 | 6.0 | 0.00 | 0.26 | 0.26 | 93 | 1016.1 |
| 20260906190511 | 73 | 99 | 4.0 | 5.0 | 0.00 | 0.26 | 0.26 | 93 | 1015.9 |
| 20260906190007 | 73 | 131 | 7.0 | 8.0 | 0.00 | 0.26 | 0.26 | 93 | 1016.1 |
| 20260906185505 | 74 | 103 | 4.0 | 5.0 | 0.00 | 0.26 | 0.26 | 94 | 1015.6 |
| 20260906185004 | 73 | 76 | 7.0 | 8.0 | 0.00 | 0.26 | 0.26 | 94 | 1015.1 |
| 20260906184500 | 73 | 88 | 5.0 | 7.0 | 0.00 | 0.26 | 0.26 | 94 | 1015.4 |
| 20260906183955 | 72 | 63 | 4.0 | 5.0 | 0.00 | 0.26 | 0.26 | 94 | 1015.7 |
| 20260906183450 | 72 | 11 | 4.0 | 5.0 | 0.05 | 0.26 | 0.26 | 93 | 1015.4 |
| 20260906182946 | 72 | 350 | 2.0 | 2.0 | 0.05 | 0.26 | 0.26 | 93 | 1015.0 |
| 20260906182436 | 72 | 55 | 3.0 | 3.0 | 0.14 | 0.25 | 0.25 | 93 | 1015.6 |
| 20260906181932 | 71 | 43 | 3.0 | 3.0 | 0.73 | 0.25 | 0.25 | 93 | 1015.8 |
| 20260906181427 | 72 | 202 | 5.0 | 6.0 | 0.85 | 0.22 | 0.22 | 92 | 1016.4 |
| 20260906180923 | 73 | 177 | 7.0 | 8.0 | 0.50 | 0.12 | 0.12 | 91 | 1016.8 |
| 20260906180417 | 74 | 149 | 4.0 | 5.0 | 0.40 | 0.08 | 0.08 | 89 | 1016.8 |
| 20260906175915 | 74 | 345 | 3.0 | 3.0 | 0.24 | 0.04 | 0.04 | 88 | 1016.1 |
| 20260906175404 | 74 | 322 | 3.0 | 3.0 | 0.07 | 0.01 | 0.01 | 87 | 1016.3 |
| 20260906174902 | 75 | 314 | 5.0 | 7.0 | 0.00 | 0.00 | 0.00 | 86 | 1016.3 |
| 20260906174402 | 75 | 354 | 4.0 | 5.0 | 0.00 | 0.00 | 0.00 | 85 | 1015.8 |
| 20260906173857 | 75 | 321 | 4.0 | 5.0 | 0.00 | 0.00 | 0.00 | 85 | 1016.1 |
| 20260906173353 | 75 | 347 | 9.0 | 10.0 | 0.00 | 0.00 | 0.00 | 85 | 1016.0 |
| 20260906172851 | 75 | 357 | 7.0 | 7.0 | 0.00 | 0.00 | 0.00 | 85 | 1015.9 |
| 20260906172348 | 75 | 296 | 6.0 | 7.0 | 0.00 | 0.00 | 0.00 | 84 | 1016.1 |
| 20260906171843 | 75 | 359 | 7.0 | 9.0 | 0.00 | 0.00 | 0.00 | 84 | 1015.8 |
| 20260906171338 | 76 | 328 | 7.0 | 8.0 | 0.00 | 0.00 | 0.00 | 83 | 1016.0 |
| 20260906170834 | 76 | 350 | 7.0 | 11.0 | 0.00 | 0.00 | 0.00 | 83 | 1016.1 |
| 20260906170330 | 79 | 324 | 7.0 | 10.0 | 0.00 | 0.00 | 0.00 | 80 | 1016.2 |
| 20260906165826 | 80 | 21 | 5.0 | 6.0 | 0.00 | 0.00 | 0.00 | 79 | 1015.9 |
| 20260906165325 | 80 | 352 | 5.0 | 6.0 | 0.00 | 0.00 | 0.00 | 78 | 1016.0 |
| 20260906164820 | 83 | 311 | 9.0 | 10.0 | 0.00 | 0.00 | 0.00 | 75 | 1015.9 |
| 20260906164320 | 83 | 321 | 3.0 | 5.0 | 0.00 | 0.00 | 0.00 | 75 | 1015.9 |
| 20260906163816 | 83 | 345 | 3.0 | 3.0 | 0.00 | 0.00 | 0.00 | 75 | 1015.7 |
| 20260906163312 | 83 | 48 | 2.0 | 3.0 | 0.00 | 0.00 | 0.00 | 75 | 1015.5 |
| 20260906162809 | 84 | 46 | 1.0 | 2.0 | 0.00 | 0.00 | 0.00 | 73 | 1015.4 |
| 20260906162308 | 84 | 280 | 3.0 | 5.0 | 0.00 | 0.00 | 0.00 | 74 | 1015.4 |
| 20260906161803 | 83 | 25 | 5.0 | 6.0 | 0.00 | 0.00 | 0.00 | 75 | 1015.1 |
| 20260906161302 | 83 | 330 | 2.0 | 3.0 | 0.00 | 0.00 | 0.00 | 75 | 1015.0 |
| 20260906160801 | 83 | 313 | 4.0 | 5.0 | 0.00 | 0.00 | 0.00 | 75 | 1014.8 |
| 20260906160256 | 83 | 359 | 5.0 | 6.0 | 0.00 | 0.00 | 0.00 | 76 | 1014.5 |
| 20260906155753 | 82 | 46 | 4.0 | 5.0 | 0.00 | 0.00 | 0.00 | 77 | 1014.6 |
| 20260906155248 | 82 | 44 | 1.0 | 2.0 | 0.00 | 0.00 | 0.00 | 79 | 1014.3 |
| 20260906154744 | 80 | 60 | 2.0 | 2.0 | 0.00 | 0.00 | 0.00 | 81 | 1014.3 |
| 20260906154238 | 80 | 49 | 3.0 | 5.0 | 0.00 | 0.00 | 0.00 | 79 | 1014.6 |
| 20260906153737 | 80 | 71 | 2.0 | 2.0 | 0.00 | 0.00 | 0.00 | 80 | 1014.4 |
| 20260906153232 | 79 | 34 | 1.0 | 3.0 | 0.00 | 0.00 | 0.00 | 82 | 1014.6 |
| 20260906152726 | 80 | 65 | 1.0 | 2.0 | 0.00 | 0.00 | 0.00 | 81 | 1014.3 |
| 20260906152221 | 78 | 115 | 2.0 | 2.0 | 0.00 | 0.00 | 0.00 | 82 | 1014.4 |
| 20260906151715 | 78 | 41 | 2.0 | 2.0 | 0.00 | 0.00 | 0.00 | 83 | 1014.4 |
| 20260906151211 | 77 | 57 | 4.0 | 5.0 | 0.00 | 0.00 | 0.00 | 84 | 1014.5 |
| 20260906150707 | 76 | 44 | 2.0 | 2.0 | 0.00 | 0.00 | 0.00 | 85 | 1014.1 |
| 20260906150202 | 75 | 33 | 2.0 | 2.0 | 0.00 | 0.00 | 0.00 | 85 | 1014.8 |
| 20260906145701 | 75 | 77 | 2.0 | 2.0 | 0.00 | 0.00 | 0.00 | 86 | 1014.6 |
| 20260906145200 | 75 | 56 | 1.0 | 2.0 | 0.00 | 0.00 | 0.00 | 87 | 1014.6 |
| 20260906144700 | 74 | 13 | 3.0 | 3.0 | 0.00 | 0.00 | 0.00 | 87 | 1014.6 |
| 20260906144155 | 73 | 306 | 2.0 | 2.0 | 0.00 | 0.00 | 0.00 | 88 | 1014.8 |
| 20260906143649 | 73 | 31 | 3.0 | 3.0 | 0.00 | 0.00 | 0.00 | 89 | 1014.8 |
| 20260906143147 | 73 | 296 | 4.0 | 5.0 | 0.00 | 0.00 | 0.00 | 89 | 1015.1 |
| 20260906142646 | 72 | 56 | 1.0 | 1.0 | 0.00 | 0.00 | 0.00 | 90 | 1014.9 |
| 20260906142141 | 72 | 100 | 0.0 | 0.0 | 0.00 | 0.00 | 0.00 | 90 | 1015.0 |
| 20260906141640 | 72 | 45 | 1.0 | 1.0 | 0.00 | 0.00 | 0.00 | 90 | 1015.2 |
| 20260906141135 | 72 | 218 | 2.0 | 2.0 | 0.00 | 0.00 | 0.00 | 90 | 1015.5 |
| 20260906140634 | 72 | 53 | 1.0 | 1.0 | 0.00 | 0.00 | 0.00 | 89 | 1015.0 |
| 20260906140129 | 72 | 222 | 3.0 | 3.0 | 0.00 | 0.00 | 0.00 | 89 | 1015.4 |
| 20260906135626 | 73 | 120 | 1.0 | 1.0 | 0.00 | 0.00 | 0.00 | 88 | 1014.8 |
| 20260906135122 | 73 | 251 | 4.0 | 5.0 | 0.00 | 0.00 | 0.00 | 88 | 1015.1 |
| 20260906134618 | 72 | 141 | 1.0 | 2.0 | 0.00 | 0.00 | 0.00 | 89 | 1014.9 |
| 20260906134113 | 71 | 68 | 2.0 | 2.0 | 0.00 | 0.00 | 0.00 | 91 | 1014.5 |
| 20260906133609 | 70 | 59 | 3.0 | 3.0 | 0.00 | 0.00 | 0.00 | 92 | 1014.3 |
| 20260906133103 | 69 | 48 | 2.0 | 2.0 | 0.00 | 0.00 | 0.00 | 92 | 1014.4 |
| 20260906132558 | 69 | 279 | 2.0 | 2.0 | 0.00 | 0.00 | 0.00 | 92 | 1014.6 |
| 20260906132054 | 69 | 124 | 1.0 | 1.0 | 0.00 | 0.00 | 0.00 | 92 | 1014.6 |
| 20260906131549 | 69 | 79 | 5.0 | 6.0 | 0.00 | 0.00 | 0.00 | 92 | 1014.5 |
| 20260906131044 | 69 | 74 | 6.0 | 7.0 | 0.00 | 0.00 | 0.00 | 92 | 1014.1 |
| 20260906130544 | 69 | 70 | 8.0 | 9.0 | 0.00 | 0.00 | 0.00 | 92 | 1014.1 |
| 20260906130039 | 69 | 81 | 5.0 | 8.0 | 0.00 | 0.00 | 0.00 | 92 | 1014.4 |
| 20260906125536 | 69 | 79 | 3.0 | 3.0 | 0.00 | 0.00 | 0.00 | 92 | 1014.6 |
| 20260906125031 | 68 | 58 | 3.0 | 3.0 | 0.00 | 0.00 | 0.00 | 92 | 1014.5 |
| 20260906124526 | 68 | 222 | 3.0 | 3.0 | 0.00 | 0.00 | 0.00 | 92 | 1015.2 |
| 20260906124021 | 68 | 77 | 2.0 | 3.0 | 0.00 | 0.00 | 0.00 | 92 | 1014.5 |
| 20260906123520 | 69 | 108 | 2.0 | 2.0 | 0.00 | 0.00 | 0.00 | 92 | 1014.9 |
| 20260906123015 | 69 | 45 | 1.0 | 1.0 | 0.00 | 0.00 | 0.00 | 92 | 1014.6 |
| 20260906122509 | 69 | 10 | 3.0 | 3.0 | 0.00 | 0.00 | 0.00 | 91 | 1014.9 |
| 20260906122006 | 69 | 194 | 1.0 | 1.0 | 0.00 | 0.00 | 0.00 | 91 | 1014.9 |
| 20260906121502 | 69 | 98 | 4.0 | 6.0 | 0.00 | 0.00 | 0.00 | 91 | 1014.8 |
| 20260906120958 | 69 | 123 | 7.0 | 8.0 | 0.00 | 0.00 | 0.00 | 91 | 1014.6 |
| 20260906120453 | 69 | 114 | 5.0 | 6.0 | 0.00 | 0.00 | 0.00 | 91 | 1014.6 |
| 20260906115949 | 69 | 105 | 4.0 | 5.0 | 0.00 | 0.00 | 0.00 | 91 | 1015.0 |
| 20260906115444 | 69 | 92 | 4.0 | 5.0 | 0.00 | 0.00 | 0.00 | 91 | 1014.9 |
| 20260906114944 | 69 | 105 | 3.0 | 3.0 | 0.00 | 0.00 | 0.00 | 91 | 1014.5 |
| 20260906114439 | 69 | 95 | 5.0 | 6.0 | 0.00 | 0.00 | 0.00 | 91 | 1014.8 |
| 20260906113935 | 69 | 117 | 5.0 | 6.0 | 0.00 | 0.00 | 0.00 | 91 | 1014.5 |
| 20260906113433 | 69 | 121 | 5.0 | 6.0 | 0.00 | 0.00 | 0.00 | 91 | 1014.4 |
| 20260906112929 | 68 | 88 | 7.0 | 8.0 | 0.00 | 0.00 | 0.00 | 92 | 1014.4 |
| 20260906112424 | 68 | 138 | 5.0 | 8.0 | 0.00 | 0.00 | 0.00 | 92 | 1014.5 |
| 20260906111920 | 68 | 110 | 5.0 | 7.0 | 0.00 | 0.00 | 0.00 | 92 | 1014.5 |
| 20260906111420 | 68 | 89 | 5.0 | 6.0 | 0.00 | 0.00 | 0.00 | 92 | 1014.5 |
| 20260906110914 | 68 | 114 | 5.0 | 6.0 | 0.00 | 0.00 | 0.00 | 92 | 1014.8 |
| 20260906110410 | 68 | 111 | 6.0 | 7.0 | 0.00 | 0.00 | 0.00 | 92 | 1014.5 |
| 20260906105909 | 68 | 115 | 5.0 | 6.0 | 0.00 | 0.00 | 0.00 | 92 | 1014.6 |
| 20260906105405 | 68 | 92 | 5.0 | 6.0 | 0.00 | 0.00 | 0.00 | 92 | 1014.5 |
| 20260906104901 | 68 | 114 | 5.0 | 6.0 | 0.00 | 0.00 | 0.00 | 92 | 1014.6 |
| 20260906104359 | 68 | 119 | 5.0 | 7.0 | 0.00 | 0.00 | 0.00 | 92 | 1014.6 |
| 20260906103858 | 68 | 113 | 5.0 | 7.0 | 0.00 | 0.00 | 0.00 | 92 | 1014.9 |
| 20260906103356 | 68 | 136 | 6.0 | 7.0 | 0.00 | 0.00 | 0.00 | 92 | 1014.8 |
| 20260906102852 | 68 | 125 | 7.0 | 9.0 | 0.00 | 0.00 | 0.00 | 92 | 1014.6 |
| 20260906102351 | 68 | 95 | 7.0 | 8.0 | 0.00 | 0.00 | 0.00 | 92 | 1014.6 |
| 20260906101846 | 68 | 108 | 8.0 | 9.0 | 0.00 | 0.00 | 0.00 | 92 | 1014.5 |
| 20260906101342 | 68 | 103 | 7.0 | 8.0 | 0.00 | 0.00 | 0.00 | 92 | 1014.6 |
| 20260906100837 | 68 | 90 | 7.0 | 8.0 | 0.00 | 0.00 | 0.00 | 92 | 1014.5 |
| 20260906100336 | 68 | 85 | 6.0 | 7.0 | 0.00 | 0.00 | 0.00 | 92 | 1014.9 |
| 20260906095831 | 68 | 122 | 7.0 | 8.0 | 0.00 | 0.00 | 0.00 | 92 | 1014.8 |
| 20260906095327 | 68 | 134 | 7.0 | 8.0 | 0.00 | 0.00 | 0.00 | 92 | 1014.9 |
| 20260906094826 | 68 | 90 | 8.0 | 9.0 | 0.00 | 0.00 | 0.00 | 92 | 1014.9 |
| 20260906094321 | 68 | 134 | 5.0 | 6.0 | 0.00 | 0.00 | 0.00 | 92 | 1014.6 |
| 20260906093817 | 68 | 112 | 8.0 | 9.0 | 0.00 | 0.00 | 0.00 | 92 | 1014.8 |
| 20260906093313 | 68 | 102 | 7.0 | 9.0 | 0.00 | 0.00 | 0.00 | 92 | 1014.8 |
| 20260906092808 | 69 | 91 | 7.0 | 8.0 | 0.00 | 0.00 | 0.00 | 92 | 1014.5 |
| 20260906092305 | 69 | 123 | 8.0 | 8.0 | 0.00 | 0.00 | 0.00 | 91 | 1014.6 |
| 20260906091758 | 69 | 127 | 6.0 | 6.0 | 0.00 | 0.00 | 0.00 | 91 | 1014.6 |
| 20260906091254 | 69 | 137 | 8.0 | 10.0 | 0.00 | 0.00 | 0.00 | 91 | 1014.6 |
| 20260906090750 | 69 | 114 | 6.0 | 8.0 | 0.00 | 0.00 | 0.00 | 91 | 1014.6 |
| 20260906090248 | 69 | 146 | 6.0 | 8.0 | 0.00 | 0.00 | 0.00 | 91 | 1014.6 |
| 20260906085748 | 68 | 137 | 9.0 | 11.0 | 0.00 | 0.00 | 0.00 | 92 | 1014.6 |
| 20260906085242 | 68 | 88 | 5.0 | 7.0 | 0.00 | 0.00 | 0.00 | 92 | 1014.8 |
| 20260906084737 | 68 | 119 | 5.0 | 6.0 | 0.00 | 0.00 | 0.00 | 92 | 1014.5 |
| 20260906084236 | 68 | 113 | 6.0 | 7.0 | 0.00 | 0.00 | 0.00 | 92 | 1014.8 |
| 20260906083732 | 68 | 94 | 7.0 | 7.0 | 0.00 | 0.00 | 0.00 | 92 | 1014.9 |
| 20260906083226 | 68 | 113 | 5.0 | 8.0 | 0.00 | 0.00 | 0.00 | 92 | 1014.8 |
| 20260906082721 | 68 | 87 | 6.0 | 8.0 | 0.00 | 0.00 | 0.00 | 92 | 1014.6 |
| 20260906082211 | 68 | 93 | 6.0 | 7.0 | 0.00 | 0.00 | 0.00 | 91 | 1014.8 |
| 20260906081707 | 68 | 93 | 7.0 | 9.0 | 0.00 | 0.00 | 0.00 | 91 | 1015.0 |
| 20260906081202 | 68 | 90 | 6.0 | 8.0 | 0.00 | 0.00 | 0.00 | 91 | 1014.5 |
| 20260906080659 | 68 | 69 | 9.0 | 10.0 | 0.00 | 0.00 | 0.00 | 92 | 1014.5 |
| 20260906080154 | 68 | 76 | 7.0 | 8.0 | 0.00 | 0.00 | 0.00 | 92 | 1014.6 |
| 20260906075654 | 68 | 83 | 7.0 | 9.0 | 0.00 | 0.00 | 0.00 | 92 | 1014.6 |
| 20260906075143 | 68 | 73 | 5.0 | 7.0 | 0.00 | 0.00 | 0.00 | 92 | 1014.2 |
| 20260906074638 | 68 | 91 | 3.0 | 6.0 | 0.00 | 0.00 | 0.00 | 91 | 1014.5 |
| 20260906074137 | 68 | 45 | 7.0 | 10.0 | 0.00 | 0.00 | 0.00 | 91 | 1014.5 |
| 20260906073632 | 68 | 71 | 8.0 | 9.0 | 0.00 | 0.00 | 0.00 | 91 | 1014.8 |
| 20260906073128 | 69 | 81 | 9.0 | 10.0 | 0.00 | 0.00 | 0.00 | 91 | 1014.6 |
| 20260906072623 | 69 | 77 | 7.0 | 9.0 | 0.00 | 0.00 | 0.00 | 91 | 1014.5 |
| 20260906072119 | 69 | 79 | 5.0 | 6.0 | 0.00 | 0.00 | 0.00 | 91 | 1014.6 |
| 20260906071615 | 69 | 98 | 8.0 | 10.0 | 0.00 | 0.00 | 0.00 | 91 | 1014.6 |
| 20260906071115 | 69 | 66 | 7.0 | 8.0 | 0.00 | 0.00 | 0.00 | 91 | 1014.5 |
| 20260906070611 | 69 | 87 | 9.0 | 11.0 | 0.00 | 0.00 | 0.00 | 91 | 1014.8 |
| 20260906070106 | 69 | 76 | 6.0 | 7.0 | 0.00 | 0.00 | 0.00 | 90 | 1014.9 |
| 20260906065606 | 69 | 88 | 7.0 | 9.0 | 0.00 | 0.00 | 0.00 | 90 | 1014.8 |
| 20260906065101 | 70 | 82 | 9.0 | 9.0 | 0.00 | 0.00 | 0.00 | 90 | 1014.8 |
| 20260906064557 | 70 | 87 | 3.0 | 3.0 | 0.00 | 0.00 | 0.00 | 90 | 1014.6 |
| 20260906064052 | 69 | 97 | 5.0 | 7.0 | 0.00 | 0.00 | 0.00 | 90 | 1015.1 |
| 20260906063547 | 69 | 117 | 7.0 | 8.0 | 0.00 | 0.00 | 0.00 | 90 | 1015.0 |
| 20260906063043 | 69 | 132 | 8.0 | 9.0 | 0.00 | 0.00 | 0.00 | 90 | 1015.0 |
| 20260906062539 | 70 | 94 | 8.0 | 10.0 | 0.00 | 0.00 | 0.00 | 90 | 1014.6 |
| 20260906062032 | 70 | 99 | 7.0 | 9.0 | 0.00 | 0.00 | 0.00 | 90 | 1014.5 |
| 20260906061529 | 70 | 80 | 7.0 | 8.0 | 0.00 | 0.00 | 0.00 | 90 | 1014.6 |
| 20260906061028 | 70 | 96 | 7.0 | 9.0 | 0.00 | 0.00 | 0.00 | 90 | 1014.6 |
| 20260906060525 | 70 | 93 | 6.0 | 7.0 | 0.00 | 0.00 | 0.00 | 89 | 1015.0 |
| 20260906060022 | 70 | 88 | 5.0 | 6.0 | 0.00 | 0.00 | 0.00 | 89 | 1014.9 |
| 20260906055517 | 70 | 54 | 7.0 | 8.0 | 0.00 | 0.00 | 0.00 | 89 | 1015.0 |
| 20260906055013 | 70 | 85 | 4.0 | 6.0 | 0.00 | 0.00 | 0.00 | 89 | 1015.1 |
| 20260906054513 | 71 | 96 | 7.0 | 8.0 | 0.00 | 0.00 | 0.00 | 89 | 1014.9 |
| 20260906054008 | 71 | 99 | 7.0 | 8.0 | 0.00 | 0.00 | 0.00 | 88 | 1015.1 |
| 20260906053504 | 71 | 92 | 5.0 | 7.0 | 0.00 | 0.00 | 0.00 | 88 | 1014.9 |
| 20260906053000 | 71 | 90 | 4.0 | 5.0 | 0.00 | 0.00 | 0.00 | 88 | 1014.9 |
| 20260906052455 | 71 | 88 | 7.0 | 10.0 | 0.00 | 0.00 | 0.00 | 87 | 1015.0 |
| 20260906051952 | 71 | 56 | 8.0 | 9.0 | 0.00 | 0.00 | 0.00 | 87 | 1014.8 |
| 20260906051447 | 71 | 93 | 7.0 | 9.0 | 0.00 | 0.00 | 0.00 | 87 | 1014.9 |
| 20260906050943 | 72 | 98 | 9.0 | 10.0 | 0.00 | 0.00 | 0.00 | 87 | 1014.5 |
| 20260906050442 | 71 | 93 | 8.0 | 10.0 | 0.00 | 0.00 | 0.00 | 87 | 1014.2 |
| 20260906045942 | 71 | 105 | 7.0 | 9.0 | 0.00 | 0.00 | 0.00 | 87 | 1014.6 |
| 20260906045441 | 72 | 76 | 7.0 | 8.0 | 0.00 | 0.00 | 0.00 | 86 | 1014.6 |
| 20260906044937 | 72 | 88 | 5.0 | 6.0 | 0.00 | 0.00 | 0.00 | 86 | 1014.9 |
| 20260906044432 | 72 | 66 | 6.0 | 7.0 | 0.00 | 0.00 | 0.00 | 85 | 1014.8 |
| 20260906043928 | 73 | 89 | 8.0 | 10.0 | 0.00 | 0.00 | 0.00 | 85 | 1014.8 |
| 20260906043423 | 72 | 108 | 10.0 | 14.0 | 0.00 | 0.00 | 0.00 | 85 | 1014.5 |
| 20260906042919 | 72 | 68 | 11.0 | 16.0 | 0.00 | 0.00 | 0.00 | 85 | 1014.4 |
| 20260906042418 | 72 | 72 | 7.0 | 10.0 | 0.00 | 0.00 | 0.00 | 85 | 1014.8 |
| 20260906041913 | 72 | 88 | 7.0 | 9.0 | 0.00 | 0.00 | 0.00 | 85 | 1014.5 |
| 20260906041409 | 73 | 101 | 7.0 | 8.0 | 0.00 | 0.00 | 0.00 | 84 | 1014.9 |
| 20260906040909 | 73 | 83 | 8.0 | 11.0 | 0.00 | 0.00 | 0.00 | 84 | 1014.9 |
| 20260906040404 | 73 | 73 | 6.0 | 7.0 | 0.00 | 0.00 | 0.00 | 84 | 1014.8 |
| 20260906035859 | 73 | 78 | 7.0 | 8.0 | 0.00 | 0.00 | 0.00 | 84 | 1015.1 |
| 20260906035355 | 73 | 78 | 5.0 | 6.0 | 0.00 | 0.00 | 0.00 | 84 | 1014.4 |
| 20260906034849 | 73 | 96 | 9.0 | 10.0 | 0.00 | 0.00 | 0.00 | 83 | 1014.8 |
| 20260906034344 | 73 | 66 | 6.0 | 9.0 | 0.00 | 0.00 | 0.00 | 83 | 1014.4 |
| 20260906033841 | 74 | 134 | 8.0 | 11.0 | 0.00 | 0.00 | 0.00 | 82 | 1014.4 |
| 20260906033339 | 74 | 130 | 7.0 | 8.0 | 0.00 | 0.00 | 0.00 | 82 | 1014.4 |
| 20260906032836 | 74 | 79 | 7.0 | 9.0 | 0.00 | 0.00 | 0.00 | 82 | 1014.1 |
| 20260906032332 | 74 | 80 | 10.0 | 11.0 | 0.00 | 0.00 | 0.00 | 82 | 1014.1 |
| 20260906031827 | 74 | 68 | 7.0 | 9.0 | 0.00 | 0.00 | 0.00 | 82 | 1014.2 |
| 20260906031322 | 74 | 60 | 8.0 | 10.0 | 0.00 | 0.00 | 0.00 | 83 | 1014.3 |
| 20260906030821 | 74 | 92 | 9.0 | 13.0 | 0.00 | 0.00 | 0.00 | 83 | 1014.1 |
| 20260906030317 | 74 | 72 | 7.0 | 8.0 | 0.00 | 0.00 | 0.00 | 82 | 1014.1 |
| 20260906025817 | 74 | 63 | 7.0 | 8.0 | 0.00 | 0.00 | 0.00 | 82 | 1014.2 |
| 20260906025311 | 74 | 72 | 10.0 | 11.0 | 0.00 | 0.00 | 0.00 | 82 | 1014.2 |
| 20260906024810 | 74 | 70 | 7.0 | 9.0 | 0.00 | 0.00 | 0.00 | 82 | 1014.3 |
| 20260906024304 | 74 | 73 | 9.0 | 11.0 | 0.00 | 0.00 | 0.00 | 82 | 1014.3 |
| 20260906023800 | 74 | 87 | 7.0 | 9.0 | 0.00 | 0.00 | 0.00 | 82 | 1014.0 |
| 20260906023254 | 74 | 69 | 9.0 | 10.0 | 0.00 | 0.00 | 0.00 | 82 | 1014.1 |
| 20260906022750 | 75 | 76 | 7.0 | 9.0 | 0.00 | 0.00 | 0.00 | 82 | 1014.0 |
| 20260906022245 | 75 | 63 | 9.0 | 13.0 | 0.00 | 0.00 | 0.00 | 81 | 1013.8 |
| 20260906021742 | 75 | 72 | 6.0 | 9.0 | 0.00 | 0.00 | 0.00 | 80 | 1013.6 |
| 20260906021240 | 76 | 72 | 4.0 | 5.0 | 0.00 | 0.00 | 0.00 | 79 | 1013.9 |
| 20260906020735 | 76 | 91 | 3.0 | 5.0 | 0.00 | 0.00 | 0.00 | 78 | 1013.6 |
| 20260906020235 | 76 | 93 | 5.0 | 6.0 | 0.00 | 0.00 | 0.00 | 77 | 1013.6 |
| 20260906015730 | 76 | 96 | 5.0 | 6.0 | 0.00 | 0.00 | 0.00 | 76 | 1013.3 |
| 20260906015228 | 77 | 108 | 6.0 | 7.0 | 0.00 | 0.00 | 0.00 | 75 | 1013.7 |
| 20260906014723 | 77 | 81 | 6.0 | 6.0 | 0.00 | 0.00 | 0.00 | 74 | 1013.3 |
| 20260906014219 | 77 | 81 | 6.0 | 7.0 | 0.00 | 0.00 | 0.00 | 74 | 1013.4 |
| 20260906013715 | 77 | 102 | 8.0 | 9.0 | 0.00 | 0.00 | 0.00 | 73 | 1013.2 |
| 20260906013215 | 77 | 95 | 8.0 | 9.0 | 0.00 | 0.00 | 0.00 | 72 | 1013.2 |
| 20260906012710 | 77 | 106 | 7.0 | 9.0 | 0.00 | 0.00 | 0.00 | 72 | 1013.2 |
| 20260906012204 | 77 | 103 | 5.0 | 6.0 | 0.00 | 0.00 | 0.00 | 71 | 1013.0 |
| 20260906011659 | 78 | 99 | 7.0 | 8.0 | 0.00 | 0.00 | 0.00 | 71 | 1013.2 |
| 20260906011154 | 78 | 72 | 7.0 | 9.0 | 0.00 | 0.00 | 0.00 | 70 | 1013.1 |
| 20260906010650 | 79 | 86 | 6.0 | 7.0 | 0.00 | 0.00 | 0.00 | 70 | 1013.1 |
| 20260906010146 | 79 | 82 | 4.0 | 5.0 | 0.00 | 0.00 | 0.00 | 69 | 1013.2 |
| 20260906005645 | 80 | 85 | 5.0 | 6.0 | 0.00 | 0.00 | 0.00 | 68 | 1012.9 |
| 20260906005144 | 81 | 105 | 8.0 | 9.0 | 0.00 | 0.00 | 0.00 | 68 | 1013.2 |
| 20260906004644 | 82 | 94 | 6.0 | 7.0 | 0.00 | 0.00 | 0.00 | 66 | 1013.1 |
| 20260906004139 | 82 | 113 | 7.0 | 8.0 | 0.00 | 0.00 | 0.00 | 66 | 1013.2 |
| 20260906003634 | 82 | 80 | 5.0 | 6.0 | 0.00 | 0.00 | 0.00 | 66 | 1013.2 |
| 20260906003130 | 83 | 100 | 4.0 | 5.0 | 0.00 | 0.00 | 0.00 | 67 | 1013.2 |
| 20260906002624 | 83 | 102 | 5.0 | 9.0 | 0.00 | 0.00 | 0.00 | 68 | 1013.3 |
| 20260906002119 | 83 | 153 | 9.0 | 14.0 | 0.00 | 0.00 | 0.00 | 68 | 1013.5 |
| 20260906001614 | 83 | 112 | 8.0 | 10.0 | 0.00 | 0.00 | 0.00 | 68 | 1013.4 |
| 20260906001109 | 83 | 108 | 9.0 | 10.0 | 0.00 | 0.00 | 0.00 | 68 | 1013.7 |
| 20260906000605 | 83 | 88 | 11.0 | 14.0 | 0.00 | 0.00 | 0.00 | 68 | 1013.7 |
| 20260906000100 | 83 | 136 | 10.0 | 13.0 | 0.00 | 0.00 | 0.00 | 69 | 1013.6 |
| 20260905235559 | 83 | 75 | 8.0 | 11.0 | 0.00 | 0.00 | 0.00 | 70 | 1013.8 |
| 20260905235054 | 83 | 109 | 12.0 | 14.0 | 0.00 | 0.00 | 0.00 | 70 | 1013.7 |
| 20260905234550 | 83 | 135 | 7.0 | 9.0 | 0.00 | 0.00 | 0.00 | 69 | 1013.7 |
| 20260905234044 | 83 | 109 | 11.0 | 16.0 | 0.00 | 0.00 | 0.00 | 69 | 1013.7 |
| 20260905233539 | 83 | 128 | 9.0 | 11.0 | 0.00 | 0.00 | 0.00 | 69 | 1013.6 |
| 20260905233039 | 83 | 129 | 13.0 | 14.0 | 0.00 | 0.00 | 0.00 | 69 | 1013.7 |
| 20260905232534 | 85 | 65 | 14.0 | 18.0 | 0.00 | 0.00 | 0.00 | 67 | 1013.4 |
| 20260905232030 | 86 | 109 | 7.0 | 9.0 | 0.00 | 0.00 | 0.00 | 65 | 1013.3 |
| 20260905231525 | 89 | 66 | 12.0 | 17.0 | 0.00 | 0.00 | 0.00 | 58 | 1013.4 |
| 20260905231021 | 90 | 68 | 10.0 | 11.0 | 0.00 | 0.00 | 0.00 | 52 | 1013.0 |
| 20260905230520 | 90 | 108 | 9.0 | 10.0 | 0.00 | 0.00 | 0.00 | 52 | 1013.1 |
| 20260905230019 | 90 | 112 | 12.0 | 15.0 | 0.00 | 0.00 | 0.00 | 51 | 1012.9 |
| 20260905225514 | 90 | 110 | 6.0 | 7.0 | 0.00 | 0.00 | 0.00 | 52 | 1012.9 |
| 20260905225009 | 91 | 136 | 10.0 | 15.0 | 0.00 | 0.00 | 0.00 | 51 | 1012.9 |
| 20260905224504 | 91 | 120 | 7.0 | 8.0 | 0.00 | 0.00 | 0.00 | 51 | 1013.0 |
| 20260905224003 | 91 | 85 | 7.0 | 8.0 | 0.00 | 0.00 | 0.00 | 51 | 1012.3 |
| 20260905223501 | 91 | 95 | 10.0 | 13.0 | 0.00 | 0.00 | 0.00 | 51 | 1012.4 |
| 20260905222956 | 91 | 121 | 8.0 | 11.0 | 0.00 | 0.00 | 0.00 | 50 | 1012.1 |
| 20260905222456 | 91 | 168 | 10.0 | 14.0 | 0.00 | 0.00 | 0.00 | 50 | 1011.9 |
| 20260905221951 | 91 | 100 | 9.0 | 10.0 | 0.00 | 0.00 | 0.00 | 50 | 1011.9 |
| 20260905221448 | 92 | 119 | 11.0 | 13.0 | 0.00 | 0.00 | 0.00 | 49 | 1011.9 |
| 20260905220944 | 92 | 92 | 6.0 | 7.0 | 0.00 | 0.00 | 0.00 | 49 | 1011.9 |
| 20260905220440 | 92 | 121 | 6.0 | 7.0 | 0.00 | 0.00 | 0.00 | 48 | 1011.8 |
| 20260905215938 | 92 | 155 | 7.0 | 9.0 | 0.00 | 0.00 | 0.00 | 47 | 1012.0 |
| 20260905215434 | 93 | 74 | 8.0 | 10.0 | 0.00 | 0.00 | 0.00 | 47 | 1012.1 |
| 20260905214930 | 92 | 134 | 3.0 | 3.0 | 0.00 | 0.00 | 0.00 | 46 | 1012.5 |
| 20260905214425 | 92 | 81 | 10.0 | 11.0 | 0.00 | 0.00 | 0.00 | 48 | 1012.7 |
| 20260905213920 | 93 | 164 | 6.0 | 9.0 | 0.00 | 0.00 | 0.00 | 44 | 1012.7 |
| 20260905213416 | 93 | 154 | 7.0 | 8.0 | 0.00 | 0.00 | 0.00 | 44 | 1012.6 |
| 20260905212912 | 93 | 113 | 5.0 | 7.0 | 0.00 | 0.00 | 0.00 | 45 | 1012.5 |